| time (UTC) | temp C | wind direction | speed KPH | gust KPH | rain 1hr cm | rain 24hr cm | rain mn cm | humidity % | barometer mb |
| 20260902003024 | 25 | 139 | 19.3 | 35.4 | 0.00 | 0.00 | 0.00 | 43 | 1003.7 |
| 20260902002516 | 26 | 152 | 22.5 | 35.4 | 0.00 | 0.00 | 0.00 | 41 | 1003.8 |
| 20260902002015 | 26 | 165 | 22.5 | 37.0 | 0.00 | 0.00 | 0.00 | 41 | 1004.0 |
| 20260902001515 | 26 | 149 | 22.5 | 38.6 | 0.00 | 0.00 | 0.00 | 41 | 1003.9 |
| 20260902001012 | 26 | 153 | 24.1 | 41.8 | 0.00 | 0.00 | 0.00 | 41 | 1004.0 |
| 20260902000511 | 26 | 199 | 24.1 | 41.8 | 0.00 | 0.00 | 0.00 | 41 | 1004.1 |
| 20260902000010 | 26 | 164 | 27.4 | 38.6 | 0.00 | 0.00 | 0.00 | 40 | 1004.0 |
| 20260901235507 | 26 | 155 | 22.5 | 35.4 | 0.00 | 0.00 | 0.00 | 40 | 1004.0 |
| 20260901235006 | 25 | 170 | 25.7 | 35.4 | 0.00 | 0.00 | 0.00 | 42 | 1004.1 |
| 20260901234505 | 26 | 158 | 24.1 | 40.2 | 0.00 | 0.00 | 0.00 | 40 | 1004.1 |
| 20260901234004 | 26 | 164 | 27.4 | 40.2 | 0.00 | 0.00 | 0.00 | 39 | 1004.3 |
| 20260901233502 | 26 | 184 | 25.7 | 45.1 | 0.00 | 0.00 | 0.00 | 40 | 1004.2 |
| 20260901233100 | 26 | 183 | 24.1 | 41.8 | 0.00 | 0.00 | 0.00 | 39 | 1004.4 |
| 20260901232559 | 26 | 164 | 32.2 | 51.5 | 0.00 | 0.00 | 0.00 | 38 | 1004.3 |
| 20260901232057 | 26 | 156 | 32.2 | 51.5 | 0.00 | 0.00 | 0.00 | 38 | 1004.4 |
| 20260901231556 | 26 | 142 | 27.4 | 45.1 | 0.00 | 0.00 | 0.00 | 40 | 1004.5 |
| 20260901231054 | 25 | 125 | 32.2 | 45.1 | 0.00 | 0.00 | 0.00 | 40 | 1004.5 |
| 20260901230553 | 25 | 165 | 19.3 | 38.6 | 0.00 | 0.00 | 0.00 | 41 | 1004.6 |
| 20260901230052 | 26 | 141 | 29.0 | 40.2 | 0.00 | 0.00 | 0.00 | 39 | 1004.7 |
| 20260901225549 | 26 | 165 | 22.5 | 40.2 | 0.00 | 0.03 | 0.00 | 39 | 1004.7 |
| 20260901225048 | 26 | 165 | 22.5 | 41.8 | 0.00 | 0.03 | 0.00 | 41 | 1004.8 |
| 20260901224547 | 26 | 147 | 24.1 | 48.3 | 0.00 | 0.03 | 0.00 | 41 | 1004.9 |
| 20260901224047 | 26 | 174 | 30.6 | 48.3 | 0.00 | 0.03 | 0.00 | 41 | 1005.0 |
| 20260901223544 | 26 | 156 | 29.0 | 43.5 | 0.00 | 0.03 | 0.00 | 41 | 1004.8 |
| 20260901223047 | 25 | 163 | 30.6 | 40.2 | 0.00 | 0.03 | 0.00 | 42 | 1004.9 |
| 20260901222540 | 25 | 173 | 24.1 | 41.8 | 0.00 | 0.03 | 0.00 | 42 | 1005.1 |
| 20260901222039 | 25 | 176 | 27.4 | 41.8 | 0.00 | 0.03 | 0.00 | 42 | 1005.1 |
| 20260901221538 | 25 | 165 | 29.0 | 41.8 | 0.00 | 0.03 | 0.00 | 41 | 1005.2 |
| 20260901221038 | 26 | 160 | 29.0 | 46.7 | 0.00 | 0.03 | 0.00 | 39 | 1005.4 |
| 20260901220536 | 26 | 180 | 32.2 | 46.7 | 0.00 | 0.03 | 0.00 | 38 | 1005.4 |
| 20260901220037 | 26 | 154 | 30.6 | 49.9 | 0.00 | 0.03 | 0.00 | 39 | 1005.5 |
| 20260901215532 | 26 | 183 | 30.6 | 51.5 | 0.00 | 0.03 | 0.00 | 39 | 1005.7 |
| 20260901215030 | 27 | 182 | 37.0 | 62.8 | 0.00 | 0.03 | 0.00 | 38 | 1005.7 |
| 20260901214533 | 27 | 163 | 27.4 | 62.8 | 0.00 | 0.03 | 0.00 | 39 | 1005.8 |
| 20260901214028 | 26 | 134 | 30.6 | 56.3 | 0.00 | 0.03 | 0.00 | 37 | 1005.7 |
| 20260901213526 | 26 | 155 | 27.4 | 51.5 | 0.00 | 0.03 | 0.00 | 39 | 1006.0 |
| 20260901213030 | 26 | 157 | 37.0 | 51.5 | 0.00 | 0.03 | 0.00 | 37 | 1006.0 |
| 20260901212522 | 25 | 160 | 29.0 | 46.7 | 0.00 | 0.03 | 0.00 | 42 | 1006.2 |
| 20260901212021 | 25 | 178 | 29.0 | 40.2 | 0.00 | 0.03 | 0.00 | 40 | 1006.2 |
| 20260901211520 | 26 | 169 | 30.6 | 51.5 | 0.00 | 0.03 | 0.00 | 40 | 1006.4 |
| 20260901211018 | 26 | 160 | 32.2 | 51.5 | 0.00 | 0.03 | 0.00 | 41 | 1006.5 |
| 20260901210517 | 26 | 151 | 33.8 | 45.1 | 0.00 | 0.03 | 0.00 | 43 | 1006.6 |
| 20260901210016 | 25 | 190 | 24.1 | 35.4 | 0.00 | 0.03 | 0.00 | 45 | 1006.6 |
| 20260901205514 | 25 | 165 | 27.4 | 43.5 | 0.00 | 0.03 | 0.00 | 46 | 1006.8 |
| 20260901205013 | 25 | 182 | 30.6 | 48.3 | 0.00 | 0.03 | 0.00 | 44 | 1007.0 |
| 20260901204513 | 25 | 169 | 33.8 | 48.3 | 0.00 | 0.03 | 0.00 | 43 | 1006.9 |
| 20260901204011 | 26 | 163 | 30.6 | 46.7 | 0.00 | 0.03 | 0.00 | 46 | 1006.9 |
| 20260901203509 | 25 | 181 | 27.4 | 49.9 | 0.00 | 0.03 | 0.00 | 45 | 1007.1 |
| 20260901203009 | 25 | 132 | 27.4 | 48.3 | 0.00 | 0.03 | 0.00 | 47 | 1007.2 |
| 20260901202506 | 25 | 163 | 33.8 | 54.7 | 0.00 | 0.03 | 0.00 | 46 | 1007.2 |
| 20260901202004 | 25 | 138 | 33.8 | 53.1 | 0.00 | 0.03 | 0.00 | 46 | 1007.2 |
| 20260901201503 | 25 | 170 | 38.6 | 48.3 | 0.00 | 0.03 | 0.00 | 46 | 1007.4 |
| 20260901201002 | 25 | 142 | 29.0 | 37.0 | 0.00 | 0.03 | 0.00 | 47 | 1007.3 |
| 20260901200600 | 24 | 149 | 27.4 | 38.6 | 0.00 | 0.03 | 0.00 | 47 | 1007.5 |
| 20260901200059 | 24 | 163 | 22.5 | 46.7 | 0.00 | 0.03 | 0.00 | 47 | 1007.6 |
| 20260901195558 | 24 | 167 | 27.4 | 40.2 | 0.00 | 0.03 | 0.00 | 47 | 1007.6 |
| 20260901195057 | 25 | 159 | 24.1 | 40.2 | 0.00 | 0.03 | 0.00 | 47 | 1007.5 |
| 20260901194559 | 25 | 145 | 30.6 | 41.8 | 0.00 | 0.03 | 0.00 | 46 | 1007.7 |
| 20260901194053 | 24 | 168 | 30.6 | 41.8 | 0.00 | 0.03 | 0.00 | 47 | 1007.6 |
| 20260901193552 | 24 | 175 | 27.4 | 38.6 | 0.00 | 0.03 | 0.00 | 46 | 1007.9 |
| 20260901193054 | 25 | 160 | 29.0 | 41.8 | 0.00 | 0.03 | 0.00 | 46 | 1007.9 |
| 20260901192548 | 24 | 194 | 25.7 | 41.8 | 0.00 | 0.03 | 0.00 | 48 | 1008.0 |
| 20260901192048 | 24 | 161 | 30.6 | 41.8 | 0.00 | 0.03 | 0.00 | 48 | 1008.0 |
| 20260901191546 | 24 | 130 | 24.1 | 40.2 | 0.00 | 0.03 | 0.00 | 48 | 1008.1 |
| 20260901191044 | 23 | 170 | 29.0 | 40.2 | 0.00 | 0.03 | 0.00 | 49 | 1008.2 |
| 20260901190543 | 23 | 159 | 20.9 | 38.6 | 0.00 | 0.03 | 0.00 | 50 | 1008.1 |
| 20260901190045 | 23 | 162 | 29.0 | 38.6 | 0.00 | 0.03 | 0.00 | 50 | 1008.2 |
| 20260901185541 | 23 | 153 | 27.4 | 38.6 | 0.00 | 0.03 | 0.00 | 50 | 1008.2 |
| 20260901185039 | 23 | 141 | 27.4 | 38.6 | 0.00 | 0.03 | 0.00 | 50 | 1008.2 |
| 20260901184545 | 23 | 122 | 29.0 | 45.1 | 0.00 | 0.03 | 0.00 | 50 | 1008.2 |
| 20260901184036 | 23 | 145 | 32.2 | 51.5 | 0.00 | 0.03 | 0.00 | 50 | 1008.3 |
| 20260901183534 | 23 | 135 | 27.4 | 51.5 | 0.00 | 0.03 | 0.00 | 50 | 1008.2 |
| 20260901183035 | 23 | 124 | 29.0 | 40.2 | 0.00 | 0.03 | 0.00 | 50 | 1008.2 |
| 20260901182531 | 23 | 134 | 25.7 | 38.6 | 0.00 | 0.03 | 0.00 | 50 | 1008.2 |
| 20260901182031 | 23 | 126 | 24.1 | 38.6 | 0.00 | 0.03 | 0.00 | 50 | 1008.3 |
| 20260901181533 | 23 | 119 | 30.6 | 38.6 | 0.00 | 0.03 | 0.00 | 50 | 1008.3 |
| 20260901181026 | 22 | 162 | 22.5 | 38.6 | 0.00 | 0.03 | 0.00 | 50 | 1008.6 |
| 20260901180525 | 22 | 126 | 30.6 | 41.8 | 0.00 | 0.03 | 0.00 | 50 | 1008.6 |
| 20260901180024 | 22 | 133 | 27.4 | 41.8 | 0.00 | 0.03 | 0.00 | 50 | 1008.7 |
| 20260901175522 | 22 | 138 | 29.0 | 40.2 | 0.00 | 0.03 | 0.00 | 50 | 1008.8 |
| 20260901175021 | 22 | 125 | 25.7 | 40.2 | 0.00 | 0.03 | 0.00 | 49 | 1008.8 |
| 20260901174519 | 22 | 132 | 27.4 | 40.2 | 0.00 | 0.03 | 0.00 | 49 | 1008.8 |
| 20260901174018 | 22 | 104 | 25.7 | 40.2 | 0.00 | 0.03 | 0.00 | 48 | 1008.9 |
| 20260901173520 | 21 | 113 | 17.7 | 30.6 | 0.00 | 0.03 | 0.00 | 48 | 1009.0 |
| 20260901173015 | 22 | 115 | 20.9 | 33.8 | 0.00 | 0.03 | 0.00 | 49 | 1009.2 |
| 20260901172515 | 22 | 122 | 20.9 | 33.8 | 0.00 | 0.03 | 0.00 | 48 | 1009.1 |
| 20260901172012 | 21 | 133 | 24.1 | 30.6 | 0.00 | 0.03 | 0.00 | 47 | 1009.1 |
| 20260901171512 | 21 | 111 | 20.9 | 30.6 | 0.00 | 0.03 | 0.00 | 46 | 1009.2 |
| 20260901171009 | 21 | 92 | 17.7 | 25.7 | 0.00 | 0.03 | 0.00 | 44 | 1009.3 |
| 20260901170507 | 21 | 113 | 16.1 | 24.1 | 0.00 | 0.03 | 0.00 | 45 | 1009.3 |
| 20260901170007 | 20 | 132 | 16.1 | 30.6 | 0.00 | 0.03 | 0.00 | 46 | 1009.5 |
| 20260901165504 | 20 | 125 | 19.3 | 30.6 | 0.00 | 0.03 | 0.00 | 46 | 1009.7 |
| 20260901165005 | 20 | 137 | 17.7 | 30.6 | 0.00 | 0.03 | 0.00 | 44 | 1009.7 |
| 20260901164502 | 20 | 124 | 14.5 | 30.6 | 0.00 | 0.03 | 0.00 | 46 | 1009.7 |
| 20260901164100 | 21 | 165 | 11.3 | 25.7 | 0.00 | 0.03 | 0.00 | 46 | 1009.7 |
| 20260901163559 | 21 | 135 | 16.1 | 27.4 | 0.00 | 0.03 | 0.00 | 47 | 1009.7 |
| 20260901163057 | 21 | 117 | 16.1 | 27.4 | 0.00 | 0.03 | 0.00 | 47 | 1009.7 |
| 20260901162558 | 21 | 143 | 16.1 | 24.1 | 0.00 | 0.03 | 0.00 | 46 | 1009.8 |
| 20260901162053 | 21 | 154 | 17.7 | 27.4 | 0.00 | 0.03 | 0.00 | 45 | 1010.0 |
| 20260901161554 | 20 | 167 | 17.7 | 27.4 | 0.00 | 0.03 | 0.00 | 45 | 1010.0 |
| 20260901161050 | 20 | 154 | 17.7 | 27.4 | 0.00 | 0.03 | 0.00 | 45 | 1010.1 |
| 20260901160549 | 20 | 137 | 16.1 | 24.1 | 0.00 | 0.03 | 0.00 | 44 | 1010.2 |
| 20260901160048 | 20 | 144 | 16.1 | 24.1 | 0.00 | 0.03 | 0.00 | 41 | 1010.3 |
| 20260901155547 | 19 | 157 | 12.9 | 24.1 | 0.00 | 0.03 | 0.00 | 39 | 1010.4 |
| 20260901155045 | 19 | 185 | 14.5 | 24.1 | 0.00 | 0.03 | 0.00 | 36 | 1010.5 |
| 20260901154544 | 19 | 178 | 14.5 | 24.1 | 0.00 | 0.03 | 0.00 | 30 | 1010.6 |
| 20260901154042 | 19 | 191 | 14.5 | 24.1 | 0.00 | 0.03 | 0.00 | 26 | 1010.6 |
| 20260901153545 | 19 | 193 | 16.1 | 22.5 | 0.00 | 0.03 | 0.00 | 25 | 1010.6 |
| 20260901153042 | 18 | 191 | 12.9 | 20.9 | 0.00 | 0.03 | 0.00 | 13 | 1010.8 |
| 20260901152537 | 18 | 174 | 14.5 | 20.9 | 0.00 | 0.03 | 0.00 | 9 | 1010.8 |
| 20260901152036 | 18 | 153 | 14.5 | 20.9 | 0.00 | 0.03 | 0.00 | 2 | 1010.9 |
| 20260901151535 | 17 | 199 | 14.5 | 20.9 | 0.00 | 0.03 | 0.00 | 1 | 1010.9 |
| 20260901151035 | 17 | 209 | 14.5 | 20.9 | 0.00 | 0.03 | 0.00 | 1 | 1011.0 |
| 20260901150531 | 17 | 199 | 16.1 | 20.9 | 0.00 | 0.03 | 0.00 | 1 | 1011.0 |
| 20260901150031 | 17 | 176 | 14.5 | 20.9 | 0.00 | 0.03 | 0.00 | 1 | 1011.1 |
| 20260901145530 | 17 | 212 | 14.5 | 20.9 | 0.00 | 0.03 | 0.00 | 1 | 1011.1 |
| 20260901145028 | 16 | 185 | 12.9 | 22.5 | 0.00 | 0.03 | 0.00 | 1 | 1011.1 |
| 20260901144529 | 16 | 203 | 11.3 | 20.9 | 0.00 | 0.03 | 0.00 | 1 | 1011.1 |
| 20260901144024 | 16 | 199 | 14.5 | 20.9 | 0.00 | 0.03 | 0.00 | 1 | 1011.1 |
| 20260901143523 | 16 | 207 | 12.9 | 19.3 | 0.00 | 0.03 | 0.00 | 1 | 1011.1 |
| 20260901143022 | 16 | 197 | 14.5 | 19.3 | 0.00 | 0.03 | 0.00 | 1 | 1011.0 |
| 20260901142521 | 15 | 197 | 14.5 | 22.5 | 0.00 | 0.03 | 0.00 | 1 | 1011.1 |
| 20260901142018 | 15 | 195 | 17.7 | 22.5 | 0.00 | 0.03 | 0.00 | 1 | 1011.1 |
| 20260901141531 | 15 | 200 | 16.1 | 20.9 | 0.00 | 0.03 | 0.00 | 1 | 1011.1 |
| 20260901141016 | 15 | 202 | 14.5 | 19.3 | 0.00 | 0.03 | 0.00 | 1 | 1011.0 |
| 20260901140514 | 15 | 188 | 12.9 | 19.3 | 0.00 | 0.03 | 0.00 | 1 | 1011.0 |
| 20260901140012 | 14 | 200 | 12.9 | 19.3 | 0.00 | 0.03 | 0.00 | 1 | 1011.0 |
| 20260901135511 | 14 | 199 | 14.5 | 20.9 | 0.00 | 0.03 | 0.00 | 1 | 1011.0 |
| 20260901135010 | 13 | 208 | 12.9 | 19.3 | 0.00 | 0.03 | 0.00 | 1 | 1010.9 |
| 20260901134511 | 13 | 198 | 14.5 | 19.3 | 0.00 | 0.03 | 0.00 | 1 | 1010.8 |
| 20260901134012 | 12 | 193 | 14.5 | 17.7 | 0.00 | 0.03 | 0.00 | 1 | 1010.7 |
| 20260901133506 | 12 | 211 | 14.5 | 17.7 | 0.00 | 0.03 | 0.00 | 1 | 1010.7 |
| 20260901133005 | 12 | 206 | 14.5 | 17.7 | 0.00 | 0.03 | 0.00 | 1 | 1010.7 |
| 20260901132504 | 12 | 207 | 11.3 | 16.1 | 0.00 | 0.03 | 0.00 | 1 | 1010.7 |
| 20260901132004 | 11 | 204 | 9.7 | 12.9 | 0.00 | 0.03 | 0.00 | 1 | 1010.7 |
| 20260901131604 | 11 | 201 | 8.0 | 11.3 | 0.00 | 0.03 | 0.00 | 1 | 1010.7 |
| 20260901131058 | 11 | 215 | 8.0 | 12.9 | 0.00 | 0.03 | 0.00 | 1 | 1010.7 |
| 20260901130557 | 11 | 209 | 9.7 | 14.5 | 0.00 | 0.03 | 0.00 | 1 | 1010.6 |
| 20260901130055 | 11 | 209 | 9.7 | 14.5 | 0.00 | 0.03 | 0.00 | 1 | 1010.6 |
| 20260901125554 | 11 | 207 | 8.0 | 12.9 | 0.00 | 0.03 | 0.00 | 1 | 1010.5 |
| 20260901125053 | 11 | 207 | 9.7 | 12.9 | 0.00 | 0.03 | 0.00 | 1 | 1010.5 |
| 20260901124555 | 11 | 187 | 8.0 | 12.9 | 0.00 | 0.03 | 0.00 | 1 | 1010.5 |
| 20260901124052 | 11 | 194 | 9.7 | 14.5 | 0.00 | 0.03 | 0.00 | 1 | 1010.5 |
| 20260901123548 | 11 | 195 | 11.3 | 14.5 | 0.00 | 0.03 | 0.00 | 1 | 1010.5 |
| 20260901123046 | 12 | 209 | 9.7 | 16.1 | 0.00 | 0.03 | 0.00 | 1 | 1010.5 |
| 20260901122545 | 12 | 199 | 11.3 | 17.7 | 0.00 | 0.03 | 0.00 | 1 | 1010.5 |
| 20260901122047 | 12 | 205 | 12.9 | 16.1 | 0.00 | 0.03 | 0.00 | 1 | 1010.5 |
| 20260901121545 | 12 | 199 | 12.9 | 16.1 | 0.00 | 0.03 | 0.00 | 1 | 1010.5 |
| 20260901121040 | 12 | 194 | 11.3 | 16.1 | 0.00 | 0.03 | 0.00 | 1 | 1010.4 |
| 20260901120539 | 12 | 205 | 12.9 | 17.7 | 0.00 | 0.03 | 0.00 | 1 | 1010.5 |
| 20260901120037 | 12 | 184 | 11.3 | 17.7 | 0.00 | 0.03 | 0.00 | 1 | 1010.5 |
| 20260901115536 | 12 | 185 | 11.3 | 16.1 | 0.00 | 0.03 | 0.00 | 1 | 1010.5 |
| 20260901115035 | 12 | 196 | 9.7 | 14.5 | 0.00 | 0.03 | 0.00 | 1 | 1010.6 |
| 20260901114550 | 12 | 194 | 11.3 | 14.5 | 0.00 | 0.03 | 0.00 | 1 | 1010.5 |
| 20260901114031 | 12 | 205 | 11.3 | 16.1 | 0.00 | 0.03 | 0.00 | 1 | 1010.5 |
| 20260901113530 | 11 | 195 | 11.3 | 14.5 | 0.00 | 0.03 | 0.00 | 1 | 1010.4 |
| 20260901113028 | 11 | 195 | 9.7 | 14.5 | 0.00 | 0.03 | 0.00 | 1 | 1010.4 |
| 20260901112527 | 12 | 204 | 9.7 | 16.1 | 0.00 | 0.03 | 0.00 | 1 | 1010.3 |
| 20260901112025 | 12 | 213 | 12.9 | 16.1 | 0.00 | 0.03 | 0.00 | 1 | 1010.2 |
| 20260901111524 | 11 | 200 | 11.3 | 16.1 | 0.00 | 0.03 | 0.00 | 1 | 1010.3 |
| 20260901111023 | 11 | 215 | 9.7 | 14.5 | 0.00 | 0.03 | 0.00 | 1 | 1010.2 |
| 20260901110521 | 11 | 217 | 11.3 | 17.7 | 0.00 | 0.03 | 0.00 | 1 | 1010.2 |
| 20260901110021 | 11 | 214 | 12.9 | 17.7 | 0.00 | 0.03 | 0.00 | 1 | 1010.3 |
| 20260901105519 | 11 | 218 | 9.7 | 12.9 | 0.00 | 0.03 | 0.00 | 1 | 1010.3 |
| 20260901105016 | 11 | 209 | 9.7 | 14.5 | 0.00 | 0.03 | 0.00 | 1 | 1010.4 |
| 20260901104515 | 11 | 195 | 9.7 | 19.3 | 0.00 | 0.03 | 0.00 | 1 | 1010.4 |
| 20260901104014 | 11 | 205 | 11.3 | 14.5 | 0.00 | 0.03 | 0.00 | 1 | 1010.5 |
| 20260901103512 | 11 | 201 | 9.7 | 14.5 | 0.00 | 0.03 | 0.00 | 1 | 1010.5 |
| 20260901103011 | 11 | 199 | 9.7 | 14.5 | 0.00 | 0.03 | 0.00 | 1 | 1010.5 |
| 20260901102514 | 11 | 205 | 11.3 | 14.5 | 0.00 | 0.03 | 0.00 | 1 | 1010.6 |
| 20260901102008 | 11 | 203 | 8.0 | 11.3 | 0.00 | 0.03 | 0.00 | 1 | 1010.6 |
| 20260901101506 | 11 | 214 | 8.0 | 11.3 | 0.00 | 0.03 | 0.00 | 1 | 1010.5 |
| 20260901101005 | 11 | 211 | 9.7 | 11.3 | 0.00 | 0.03 | 0.00 | 1 | 1010.5 |
| 20260901100504 | 11 | 202 | 9.7 | 12.9 | 0.00 | 0.03 | 0.00 | 1 | 1010.6 |
| 20260901100001 | 11 | 199 | 8.0 | 12.9 | 0.00 | 0.03 | 0.00 | 1 | 1010.6 |
| 20260901095601 | 11 | 203 | 9.7 | 14.5 | 0.00 | 0.03 | 0.00 | 1 | 1010.6 |
| 20260901095059 | 11 | 198 | 11.3 | 14.5 | 0.00 | 0.03 | 0.00 | 1 | 1010.6 |
| 20260901094558 | 11 | 193 | 11.3 | 12.9 | 0.00 | 0.03 | 0.00 | 1 | 1010.7 |
| 20260901094059 | 11 | 192 | 9.7 | 12.9 | 0.00 | 0.03 | 0.00 | 1 | 1010.7 |
| 20260901093555 | 11 | 203 | 9.7 | 12.9 | 0.00 | 0.03 | 0.00 | 1 | 1010.7 |
| 20260901093053 | 11 | 205 | 9.7 | 12.9 | 0.00 | 0.03 | 0.00 | 1 | 1010.6 |
| 20260901092552 | 11 | 205 | 8.0 | 11.3 | 0.00 | 0.03 | 0.00 | 1 | 1010.6 |
| 20260901092050 | 11 | 205 | 8.0 | 9.7 | 0.00 | 0.03 | 0.00 | 1 | 1010.7 |
| 20260901091553 | 11 | 205 | 6.4 | 11.3 | 0.00 | 0.03 | 0.00 | 1 | 1010.7 |
| 20260901091049 | 12 | 205 | 8.0 | 12.9 | 0.00 | 0.03 | 0.00 | 1 | 1010.7 |
| 20260901090545 | 12 | 199 | 9.7 | 14.5 | 0.00 | 0.03 | 0.00 | 1 | 1010.7 |
| 20260901090044 | 12 | 207 | 9.7 | 14.5 | 0.00 | 0.03 | 0.00 | 1 | 1010.6 |
| 20260901085542 | 12 | 211 | 9.7 | 12.9 | 0.00 | 0.03 | 0.00 | 1 | 1010.6 |
| 20260901085041 | 12 | 208 | 9.7 | 14.5 | 0.00 | 0.03 | 0.00 | 1 | 1010.6 |
| 20260901084540 | 12 | 197 | 11.3 | 14.5 | 0.00 | 0.03 | 0.00 | 1 | 1010.5 |
| 20260901084039 | 12 | 197 | 6.4 | 14.5 | 0.00 | 0.03 | 0.00 | 1 | 1010.5 |
| 20260901083537 | 12 | 196 | 9.7 | 16.1 | 0.00 | 0.03 | 0.00 | 1 | 1010.6 |
| 20260901083036 | 12 | 199 | 11.3 | 16.1 | 0.00 | 0.03 | 0.00 | 1 | 1010.7 |
| 20260901082533 | 12 | 199 | 11.3 | 16.1 | 0.00 | 0.03 | 0.00 | 1 | 1010.7 |
| 20260901082032 | 12 | 204 | 9.7 | 16.1 | 0.00 | 0.03 | 0.00 | 1 | 1010.7 |
| 20260901081538 | 12 | 209 | 11.3 | 16.1 | 0.00 | 0.03 | 0.00 | 1 | 1010.8 |
| 20260901081029 | 12 | 202 | 12.9 | 16.1 | 0.00 | 0.03 | 0.00 | 1 | 1010.9 |
| 20260901080531 | 12 | 196 | 11.3 | 16.1 | 0.00 | 0.03 | 0.00 | 1 | 1010.9 |
| 20260901080516 | 12 | 197 | 11.3 | 16.1 | 0.00 | 0.03 | 0.00 | 1 | 1010.9 |
| 20260901080010 | 12 | 197 | 12.9 | 16.1 | 0.00 | 0.03 | 0.00 | 1 | 1010.8 |
| 20260901075508 | 12 | 195 | 12.9 | 16.1 | 0.00 | 0.03 | 0.00 | 1 | 1010.8 |
| 20260901075010 | 12 | 183 | 11.3 | 16.1 | 0.00 | 0.03 | 0.00 | 1 | 1010.8 |
| 20260901074505 | 12 | 202 | 11.3 | 16.1 | 0.00 | 0.03 | 0.00 | 1 | 1010.9 |
| 20260901074003 | 12 | 195 | 12.9 | 16.1 | 0.00 | 0.03 | 0.00 | 1 | 1011.0 |
| 20260901073502 | 12 | 214 | 12.9 | 17.7 | 0.00 | 0.03 | 0.00 | 1 | 1011.0 |
| 20260901073102 | 12 | 206 | 12.9 | 22.5 | 0.00 | 0.03 | 0.00 | 1 | 1010.9 |
| 20260901072559 | 12 | 220 | 14.5 | 22.5 | 0.00 | 0.03 | 0.00 | 1 | 1011.0 |
| 20260901072059 | 12 | 221 | 12.9 | 17.7 | 0.00 | 0.03 | 0.00 | 1 | 1011.0 |
| 20260901071557 | 12 | 205 | 14.5 | 19.3 | 0.00 | 0.03 | 0.00 | 1 | 1010.9 |
| 20260901071056 | 12 | 224 | 16.1 | 19.3 | 0.00 | 0.03 | 0.00 | 1 | 1010.9 |
| 20260901070554 | 12 | 212 | 16.1 | 20.9 | 0.00 | 0.03 | 0.00 | 1 | 1011.0 |
| 20260901070053 | 12 | 228 | 12.9 | 17.7 | 0.00 | 0.03 | 0.00 | 1 | 1010.9 |
| 20260901065550 | 12 | 209 | 12.9 | 17.7 | 0.00 | 0.03 | 0.00 | 1 | 1011.1 |
| 20260901065049 | 12 | 207 | 12.9 | 17.7 | 0.00 | 0.03 | 0.00 | 1 | 1011.0 |
| 20260901064548 | 12 | 204 | 12.9 | 17.7 | 0.00 | 0.03 | 0.00 | 1 | 1011.1 |
| 20260901064045 | 12 | 211 | 12.9 | 16.1 | 0.00 | 0.03 | 0.00 | 1 | 1011.1 |
| 20260901063544 | 13 | 210 | 11.3 | 16.1 | 0.00 | 0.03 | 0.00 | 1 | 1011.1 |
| 20260901063045 | 13 | 210 | 12.9 | 16.1 | 0.00 | 0.03 | 0.00 | 1 | 1011.1 |
| 20260901062545 | 13 | 207 | 9.7 | 14.5 | 0.00 | 0.03 | 0.00 | 1 | 1011.1 |
| 20260901062040 | 13 | 201 | 11.3 | 17.7 | 0.00 | 0.03 | 0.00 | 1 | 1011.0 |
| 20260901061539 | 13 | 199 | 11.3 | 17.7 | 0.00 | 0.03 | 0.00 | 1 | 1011.0 |
| 20260901061038 | 13 | 211 | 14.5 | 16.1 | 0.00 | 0.03 | 0.00 | 1 | 1011.0 |
| 20260901060535 | 13 | 189 | 11.3 | 16.1 | 0.00 | 0.03 | 0.00 | 1 | 1011.1 |
| 20260901060035 | 13 | 215 | 9.7 | 14.5 | 0.00 | 0.03 | 0.00 | 1 | 1011.2 |
| 20260901055534 | 13 | 202 | 11.3 | 17.7 | 0.00 | 0.03 | 0.03 | 1 | 1011.1 |
| 20260901055035 | 13 | 206 | 12.9 | 17.7 | 0.00 | 0.03 | 0.03 | 1 | 1011.2 |
| 20260901054535 | 13 | 203 | 11.3 | 17.7 | 0.00 | 0.03 | 0.03 | 1 | 1011.2 |
| 20260901054034 | 13 | 201 | 12.9 | 17.7 | 0.00 | 0.03 | 0.03 | 1 | 1011.2 |
| 20260901053534 | 13 | 213 | 12.9 | 17.7 | 0.00 | 0.03 | 0.03 | 1 | 1011.2 |
| 20260901053034 | 13 | 203 | 12.9 | 17.7 | 0.00 | 0.03 | 0.03 | 1 | 1011.2 |
| 20260901052533 | 14 | 198 | 12.9 | 19.3 | 0.00 | 0.03 | 0.03 | 1 | 1011.2 |
| 20260901052033 | 14 | 201 | 14.5 | 19.3 | 0.00 | 0.03 | 0.03 | 1 | 1011.1 |
| 20260901051535 | 14 | 196 | 14.5 | 19.3 | 0.00 | 0.03 | 0.03 | 1 | 1011.1 |
| 20260901051033 | 14 | 171 | 12.9 | 19.3 | 0.00 | 0.03 | 0.03 | 1 | 1011.2 |
| 20260901050529 | 14 | 176 | 12.9 | 17.7 | 0.00 | 0.03 | 0.03 | 1 | 1011.3 |
| 20260901050028 | 14 | 164 | 14.5 | 17.7 | 0.00 | 0.03 | 0.03 | 1 | 1011.3 |
| 20260901045527 | 14 | 180 | 12.9 | 19.3 | 0.00 | 0.03 | 0.03 | 1 | 1011.3 |
| 20260901045025 | 14 | 168 | 11.3 | 19.3 | 0.00 | 0.03 | 0.03 | 1 | 1011.4 |
| 20260901044527 | 15 | 174 | 8.0 | 16.1 | 0.00 | 0.03 | 0.03 | 1 | 1011.5 |
| 20260901044023 | 15 | 151 | 11.3 | 20.9 | 0.00 | 0.03 | 0.03 | 1 | 1011.4 |
| 20260901043521 | 15 | 157 | 14.5 | 22.5 | 0.00 | 0.03 | 0.03 | 1 | 1011.5 |
| 20260901043023 | 15 | 142 | 14.5 | 22.5 | 0.00 | 0.03 | 0.03 | 1 | 1011.6 |
| 20260901042518 | 14 | 130 | 12.9 | 19.3 | 0.00 | 0.03 | 0.03 | 1 | 1011.6 |
| 20260901042016 | 14 | 163 | 9.7 | 14.5 | 0.00 | 0.03 | 0.03 | 1 | 1011.6 |
| 20260901041516 | 14 | 180 | 8.0 | 16.1 | 0.00 | 0.03 | 0.03 | 1 | 1011.6 |
| 20260901041014 | 15 | 165 | 9.7 | 17.7 | 0.00 | 0.03 | 0.03 | 1 | 1011.6 |
| 20260901040513 | 15 | 179 | 12.9 | 24.1 | 0.00 | 0.03 | 0.03 | 1 | 1011.6 |
| 20260901040012 | 15 | 168 | 12.9 | 24.1 | 0.00 | 0.03 | 0.03 | 1 | 1011.6 |
| 20260901035509 | 15 | 149 | 17.7 | 29.0 | 0.00 | 0.03 | 0.03 | 1 | 1011.5 |
| 20260901035008 | 14 | 140 | 16.1 | 27.4 | 0.00 | 0.03 | 0.03 | 1 | 1011.5 |
| 20260901034515 | 14 | 157 | 9.7 | 14.5 | 0.00 | 0.03 | 0.03 | 1 | 1011.5 |
| 20260901034004 | 14 | 192 | 8.0 | 16.1 | 0.00 | 0.03 | 0.03 | 1 | 1011.7 |
| 20260901033503 | 14 | 203 | 9.7 | 24.1 | 0.00 | 0.03 | 0.03 | 1 | 1011.7 |
| 20260901033006 | 14 | 173 | 12.9 | 22.5 | 0.00 | 0.03 | 0.03 | 1 | 1011.6 |
| 20260901032601 | 14 | 195 | 16.1 | 22.5 | 0.00 | 0.03 | 0.03 | 1 | 1011.5 |
| 20260901032058 | 14 | 183 | 12.9 | 19.3 | 0.00 | 0.03 | 0.03 | 1 | 1011.4 |
| 20260901031557 | 14 | 207 | 16.1 | 22.5 | 0.00 | 0.03 | 0.03 | 1 | 1011.4 |
| 20260901031056 | 13 | 184 | 14.5 | 19.3 | 0.00 | 0.03 | 0.03 | 1 | 1011.3 |
| 20260901030555 | 14 | 175 | 12.9 | 20.9 | 0.00 | 0.03 | 0.03 | 1 | 1011.2 |
| 20260901030053 | 14 | 201 | 14.5 | 22.5 | 0.00 | 0.03 | 0.03 | 1 | 1011.2 |
| 20260901025551 | 14 | 193 | 17.7 | 24.1 | 0.00 | 0.03 | 0.03 | 1 | 1011.2 |
| 20260901025050 | 14 | 187 | 16.1 | 24.1 | 0.00 | 0.03 | 0.03 | 1 | 1011.1 |
| 20260901024548 | 14 | 176 | 17.7 | 24.1 | 0.00 | 0.03 | 0.03 | 1 | 1011.1 |
| 20260901024048 | 14 | 191 | 16.1 | 29.0 | 0.00 | 0.03 | 0.03 | 1 | 1011.0 |
| 20260901023545 | 15 | 203 | 17.7 | 29.0 | 0.00 | 0.03 | 0.03 | 1 | 1011.0 |
| 20260901023044 | 15 | 178 | 17.7 | 33.8 | 0.00 | 0.03 | 0.03 | 1 | 1010.9 |
| 20260901022542 | 15 | 189 | 22.5 | 35.4 | 0.00 | 0.03 | 0.03 | 1 | 1010.9 |
| 20260901022041 | 15 | 158 | 20.9 | 35.4 | 0.00 | 0.03 | 0.03 | 1 | 1010.8 |
| 20260901021539 | 15 | 186 | 24.1 | 37.0 | 0.00 | 0.03 | 0.03 | 1 | 1010.6 |
| 20260901021038 | 15 | 167 | 24.1 | 37.0 | 0.00 | 0.03 | 0.03 | 1 | 1010.5 |
| 20260901020536 | 16 | 176 | 20.9 | 33.8 | 0.00 | 0.03 | 0.03 | 6 | 1010.5 |
| 20260901020035 | 16 | 194 | 20.9 | 25.7 | 0.00 | 0.03 | 0.03 | 6 | 1010.4 |
| 20260901015532 | 16 | 209 | 19.3 | 29.0 | 0.00 | 0.03 | 0.03 | 9 | 1010.4 |
| 20260901015034 | 16 | 197 | 20.9 | 29.0 | 0.00 | 0.03 | 0.03 | 12 | 1010.4 |
| 20260901014530 | 16 | 181 | 16.1 | 25.7 | 0.00 | 0.03 | 0.03 | 19 | 1010.4 |
| 20260901014033 | 16 | 195 | 12.9 | 32.2 | 0.00 | 0.03 | 0.03 | 26 | 1010.3 |
| 20260901013528 | 16 | 171 | 12.9 | 32.2 | 0.00 | 0.03 | 0.03 | 27 | 1010.3 |
| 20260901013039 | 16 | 149 | 14.5 | 29.0 | 0.00 | 0.03 | 0.03 | 25 | 1010.3 |
| 20260901012525 | 16 | 189 | 17.7 | 29.0 | 0.00 | 0.03 | 0.03 | 23 | 1010.4 |
| 20260901012027 | 16 | 192 | 17.7 | 25.7 | 0.00 | 0.03 | 0.03 | 23 | 1010.3 |
| 20260901011533 | 16 | 202 | 14.5 | 22.5 | 0.00 | 0.03 | 0.03 | 24 | 1010.4 |
| 20260901011020 | 16 | 186 | 12.9 | 24.1 | 0.00 | 0.03 | 0.03 | 23 | 1010.4 |
| 20260901010520 | 16 | 144 | 17.7 | 27.4 | 0.00 | 0.03 | 0.03 | 22 | 1010.5 |
| 20260901010017 | 16 | 155 | 20.9 | 29.0 | 0.00 | 0.03 | 0.03 | 22 | 1010.5 |
| 20260901005514 | 16 | 147 | 20.9 | 29.0 | 0.00 | 0.03 | 0.03 | 20 | 1010.5 |
| 20260901005013 | 17 | 142 | 19.3 | 33.8 | 0.00 | 0.03 | 0.03 | 21 | 1010.7 |
| 20260901004512 | 17 | 114 | 25.7 | 33.8 | 0.00 | 0.03 | 0.03 | 23 | 1010.8 |
| 20260901004011 | 16 | 103 | 20.9 | 30.6 | 0.00 | 0.03 | 0.03 | 20 | 1010.8 |
| 20260901003509 | 16 | 97 | 20.9 | 30.6 | 0.00 | 0.03 | 0.03 | 14 | 1010.8 |